EW1334 Weather Reports


time (UTC)temp
C
wind
direction
speed
KPH
gust
KPH
rain 1hr
cm
rain 24hr
cm
rain mn
cm
humidity
%
barometer
mb
20260506134517 23 209 6.4 30.6 0.00 0.00 0.00 45 1004.6
20260506133025 23 233 9.7 30.6 0.00 0.00 0.00 46 1004.6
20260506131517 23 281 8.0 22.5 0.00 0.00 0.00 46 1004.6
20260506130015 23 301 9.7 25.7 0.00 0.00 0.00 46 1004.6
20260506124512 23 250 14.5 30.6 0.00 0.00 0.00 46 1004.6
20260506123010 22 247 9.7 24.1 0.00 0.00 0.00 47 1004.8
20260506121509 22 246 6.4 19.3 0.00 0.00 0.00 47 1004.7
20260506120008 22 283 8.0 16.1 0.00 0.00 0.00 47 1004.7
20260506114527 22 238 8.0 22.5 0.00 0.00 0.00 48 1004.7
20260506113107 23 318 9.7 19.3 0.00 0.00 0.00 46 1004.6
20260506111506 22 234 12.9 30.6 0.00 0.00 0.00 46 1004.7
20260506110007 22 241 16.1 27.4 0.00 0.00 0.00 45 1004.4
20260506104505 22 235 12.9 30.6 0.00 0.00 0.00 45 1004.5
20260506103003 22 191 11.3 29.0 0.00 0.00 0.00 46 1004.6
20260506101503 22 102 8.0 30.6 0.00 0.00 0.00 45 1004.5
20260506100002 22 203 9.7 27.4 0.00 0.00 0.00 45 1004.5
20260506094602 22 151 3.2 27.4 0.00 0.00 0.00 43 1004.6
20260506094502 23 321 9.7 27.4 0.00 0.00 0.00 42 1004.6
20260506093059 22 117 6.4 22.5 0.00 0.00 0.00 44 1004.6
20260506091557 22 264 11.3 25.7 0.00 0.00 0.00 42 1004.6
20260506090055 22 249 11.3 27.4 0.00 0.00 0.00 42 1004.6
20260506084600 22 170 9.7 24.1 0.00 0.00 0.00 40 1004.5
20260506083052 21 252 4.8 22.5 0.00 0.00 0.00 46 1004.4
20260506081550 21 174 6.4 17.7 0.00 0.00 0.00 47 1004.4
20260506073043 21 140 3.2 12.9 0.00 0.00 0.00 48 1004.8
20260506071538 19 149 4.8 11.3 0.00 0.00 0.00 53 1004.9
20260506061522 16 135 3.2 11.3 0.00 0.00 0.00 69 1005.2
20260506044558 12 69 6.4 12.9 0.00 0.00 0.00 80 1005.4
20260506043055 11 51 3.2 9.7 0.00 0.00 0.00 83 1005.4
20260506041554 11 53 3.2 9.7 0.00 0.00 0.00 83 1005.5
20260506040055 11 127 4.8 16.1 0.00 0.00 0.00 83 1005.6
20260506034548 10 53 4.8 9.7 0.00 0.00 0.00 83 1005.5
20260506033045 10 94 4.8 11.3 0.00 0.00 0.00 82 1005.8
20260506031542 10 82 3.2 11.3 0.00 0.00 0.00 81 1005.6
20260506030056 10 63 3.2 11.3 0.00 0.00 0.00 79 1005.7
20260506024550 10 89 4.8 8.0 0.00 0.00 0.00 78 1005.8
20260506023035 10 46 3.2 8.0 0.00 0.00 0.00 78 1006.0
20260506021534 10 46 3.2 6.4 0.00 0.00 0.00 78 1006.0
20260506020033 10 56 3.2 8.0 0.00 0.00 0.00 78 1006.0
20260506014543 10 1 1.6 8.0 0.00 0.00 0.00 77 1006.0
20260506013032 11 32 1.6 6.4 0.00 0.00 0.00 76 1006.2
20260506011536 11 46 3.2 9.7 0.00 0.00 0.00 76 1006.2
20260506010027 11 18 4.8 9.7 0.00 0.00 0.00 76 1006.2
20260506004542 11 59 3.2 16.1 0.00 0.00 0.00 76 1006.2
20260506003031 11 322 3.2 8.0 0.00 0.00 0.00 77 1006.1
20260506001521 12 314 3.2 9.7 0.00 0.00 0.00 77 1006.1
20260506000022 12 15 1.6 6.4 0.00 0.00 0.00 77 1006.1
20260505234514 12 68 3.2 8.0 0.00 0.00 0.00 77 1005.9
20260505233012 13 8 3.2 11.3 0.00 0.00 0.00 77 1005.9
20260505231508 13 42 3.2 14.5 0.00 0.00 0.00 77 1005.9
20260505230006 13 47 4.8 12.9 0.00 0.00 0.00 76 1005.9
20260505224504 14 340 3.2 8.0 0.00 0.00 0.00 75 1005.8
20260505223001 15 58 4.8 11.3 0.00 0.00 0.00 75 1005.9
20260505221604 15 350 6.4 12.9 0.00 0.00 0.00 74 1005.9
20260505220055 15 47 6.4 17.7 0.00 0.00 0.00 74 1006.0
20260505214559 15 58 4.8 16.1 0.00 0.00 0.00 73 1006.1
20260505213059 16 46 4.8 11.3 0.00 0.00 0.00 71 1006.0
20260505211554 17 350 1.6 12.9 0.00 0.00 0.00 69 1005.8
20260505210053 17 11 3.2 20.9 0.00 0.00 0.00 67 1005.7
20260505204553 17 41 11.3 24.1 0.00 0.00 0.00 67 1005.7
20260505203056 18 18 3.2 16.1 0.00 0.00 0.00 66 1005.7
20260505201553 18 58 8.0 20.9 0.00 0.00 0.00 66 1005.6
20260505200052 18 4 6.4 12.9 0.00 0.00 0.00 64 1005.5
20260505194557 19 348 9.7 17.7 0.00 0.00 0.00 62 1005.4
20260505193105 20 1 4.8 11.3 0.00 0.00 0.00 53 1005.3
20260505191553 20 322 8.0 16.1 0.00 0.00 0.00 44 1005.0
20260505190051 19 347 4.8 9.7 0.00 0.00 0.00 38 1004.9
20260505184554 21 135 0.0 1.6 0.00 0.00 0.00 37 1004.6
20260505183049 22 161 0.0 4.8 0.00 0.00 0.00 32 1004.6
20260505181547 23 168 1.6 3.2 0.00 0.00 0.00 30 1004.6
20260505180047 23 135 1.6 6.4 0.00 0.00 0.00 28 1004.6
20260505174546 24 171 3.2 6.4 0.00 0.00 0.00 28 1004.5
20260505173044 24 150 3.2 11.3 0.00 0.00 0.00 27 1004.6
20260505171548 25 169 3.2 8.0 0.00 0.00 0.00 26 1004.6
20260505170043 25 122 6.4 16.1 0.00 0.00 0.00 26 1004.7
20260505164544 25 159 8.0 14.5 0.00 0.00 0.00 26 1004.8
20260505163042 25 1 4.8 16.1 0.00 0.00 0.00 25 1004.9
20260505161539 25 160 8.0 19.3 0.00 0.00 0.00 25 1004.9
20260505153043 26 133 12.9 25.7 0.00 0.00 0.00 22 1005.1
20260505151536 26 232 6.4 16.1 0.00 0.00 0.00 25 1005.1